Location: Lawrence Hall of Science
(37.8785°N, 122.2415°W)
Time: 13:04:29
(UTC-07:00)

Cosmos 2151 - Visible Passes

Search period start: 28 May 2016 00:00
Search period end: 07 June 2016 00:00
Orbit: 582 x 603 km, 82.5° (Epoch: 28 May)

Date Brightness Start Highest point End Pass type
(mag) Time Alt. Az. Time Alt. Az. Time Alt. Az.
28 May 4.2 02:11:09 38° NNW 02:11:09 38° NNW 02:13:55 10° N visible
29 May 5.7 00:43:35 12° ENE 00:43:35 12° ENE 00:44:10 10° NE visible
29 May 4.5 02:20:11 30° NW 02:20:11 30° NW 02:22:50 10° N visible
30 May 5.3 00:52:36 17° NE 00:52:36 17° NE 00:54:07 10° NE visible
30 May 4.8 02:29:12 22° NW 02:29:12 22° NW 02:31:33 10° NNW visible
31 May 5.0 01:01:36 24° NE 01:01:36 24° NE 01:03:39 10° NNE visible
31 May 5.2 02:38:12 16° WNW 02:38:12 16° WNW 02:39:59 10° NNW visible
01 Jun 4.6 01:10:36 31° NNE 01:10:36 31° NNE 01:12:59 10° NNE visible
01 Jun 5.6 02:47:12 10° WNW 02:47:12 10° WNW 02:47:35 10° NW visible
02 Jun 4.4 01:19:35 36° N 01:19:35 36° N 01:22:09 10° N visible
03 Jun 4.4 01:28:33 35° NNW 01:28:33 35° NNW 01:31:10 10° N visible
04 Jun 5.5 00:00:55 12° ENE 00:00:55 12° ENE 00:01:39 10° NE visible
04 Jun 4.7 01:37:30 28° NW 01:37:30 28° NW 01:40:02 10° N visible
05 Jun 5.1 00:09:51 18° NE 00:09:51 18° NE 00:11:30 10° NE visible
05 Jun 5.0 01:46:27 21° NW 01:46:27 21° NW 01:48:43 10° NNW visible
06 Jun 4.7 00:18:47 26° NE 00:18:47 26° NE 00:20:59 10° NNE visible
06 Jun 5.4 01:55:23 15° WNW 01:55:23 15° WNW 01:57:03 10° NW visible
